Hamilton, OH

12:43 AM EDT on March 29, 2017 (GMT -0400)
Butler County Regional

Weather History for KHAO - September, 2012

Change the Weather History Date:

Tuesday, September 4, 2012

  Actual Average (KLUK) Record (KLUK)
Temperature  
Mean Temperature 80 °F -  
Max Temperature 89 °F 81 °F 97 °F (2007)
Min Temperature 71 °F 62 °F 44 °F (1997)
Cooling Degree Days 14    
Growing Degree Days 30 (Base 50)    
Moisture  
Dew Point 72 °F    
Average Humidity 89    
Maximum Humidity 100    
Minimum Humidity 57    
Precipitation  
Precipitation 0.01 in - - ()
Sea Level Pressure  
Sea Level Pressure 29.89 in    
Wind  
Wind Speed 1 mph (WSW)    
Max Wind Speed 7 mph    
Max Gust Speed -    
Visibility 7 miles    
Events Rain    
Averages and records for this station are not official NWS values.
T = Trace of Precipitation, MM = Missing Value Source: NWS Daily Summary

Daily Weather History Graph

Daily Weather History Graph

Search for Another Location

Airport or City:

Trip Planner

Search our weather history database for the weather conditions in past years. The results will help you decide how hot, cold, wet, or windy it might be!

Date:

Astronomy

Sep. 04, 2012 Rise Set
Actual Time 7:09 AM EDT 8:03 PM EDT
Civil Twilight 6:42 AM EDT 8:30 PM EDT
Nautical Twilight 6:09 AM EDT 9:03 PM EDT
Astronomical Twilight 5:36 AM EDT 9:36 PM EDT
Moon 9:57 PM EDT (9/4) 11:13 AM EDT (9/4)
Length of Visible Light 13h 48m
Length of Day
12h 53m
Waning Gibbous, 84% of the Moon is Illuminated
Sep 4
Waning Gibbous
Sep 8
Last Quarter
Sep 15
New
Sep 22
First Quarter
Sep 29
Full

Hourly Weather History & Observations

Time (EDT) Temp. Heat Index Dew Point Humidity Pressure Visibility Wind Dir Wind Speed Gust Speed Precip Events Conditions
12:31 AM 73.4 °F - 73.4 °F 100% 29.91 in 7.0 mi Calm Calm - N/A   Overcast
12:53 AM 73.9 °F - 73.0 °F 97% 29.90 in 7.0 mi Calm Calm - N/A   Overcast
1:53 AM 73.9 °F - 72.0 °F 93% 29.89 in 10.0 mi Calm Calm - N/A   Overcast
2:17 AM 73.4 °F - 73.4 °F 100% 29.89 in 7.0 mi Calm Calm - N/A   Overcast
2:24 AM 73.4 °F - 73.4 °F 100% 29.89 in 6.0 mi Calm Calm - N/A   Overcast
2:53 AM 73.9 °F - 73.0 °F 97% 29.88 in 7.0 mi Calm Calm - N/A   Overcast
3:04 AM 73.4 °F - 73.4 °F 100% 29.89 in 7.0 mi Calm Calm - N/A   Overcast
3:41 AM 73.4 °F - 73.4 °F 100% 29.89 in 6.0 mi Calm Calm - N/A   Overcast
3:53 AM 73.9 °F - 73.0 °F 97% 29.88 in 6.0 mi Calm Calm - N/A   Overcast
4:53 AM 73.0 °F - 72.0 °F 96% 29.87 in 4.0 mi Calm Calm - N/A   Mostly Cloudy
5:07 AM 73.4 °F - 71.6 °F 94% 29.89 in 2.0 mi Calm Calm - N/A   Mostly Cloudy
5:17 AM 71.6 °F - 71.6 °F 100% 29.89 in 3.0 mi Calm Calm - N/A   Mostly Cloudy
5:31 AM 73.4 °F - 71.6 °F 94% 29.89 in 4.0 mi Calm Calm - N/A   Mostly Cloudy
5:41 AM 73.4 °F - 71.6 °F 94% 29.90 in 4.0 mi Calm Calm - N/A   Overcast
5:53 AM 73.0 °F - 72.0 °F 96% 29.89 in 4.0 mi Calm Calm - N/A   Overcast
6:18 AM 73.4 °F - 71.6 °F 94% 29.90 in 3.0 mi Calm Calm - N/A   Overcast
6:53 AM 73.0 °F - 72.0 °F 96% 29.89 in 2.5 mi Calm Calm - N/A   Overcast
7:03 AM 73.4 °F - 71.6 °F 94% 29.90 in 3.0 mi Calm Calm - N/A   Overcast
7:20 AM 73.4 °F - 71.6 °F 94% 29.91 in 4.0 mi Calm Calm - N/A   Overcast
7:53 AM 73.0 °F - 72.0 °F 96% 29.90 in 4.0 mi Calm Calm - N/A   Overcast
8:24 AM 73.4 °F - 73.4 °F 100% 29.91 in 5.0 mi Calm Calm - N/A   Overcast
8:53 AM 75.0 °F - 73.0 °F 94% 29.90 in 5.0 mi Calm Calm - N/A   Overcast
9:10 AM 75.2 °F - 73.4 °F 94% 29.91 in 6.0 mi Calm Calm - 0.00 in Rain Light Rain
9:24 AM 75.2 °F - 73.4 °F 94% 29.92 in 7.0 mi Calm Calm - 0.00 in   Overcast
9:37 AM 75.2 °F - 73.4 °F 94% 29.91 in 7.0 mi Calm Calm - 0.00 in   Overcast
9:53 AM 75.9 °F - 73.0 °F 91% 29.90 in 7.0 mi Calm Calm - 0.00 in   Overcast
10:16 AM 77.0 °F - 73.4 °F 89% 29.92 in 7.0 mi Calm Calm - N/A   Overcast
10:30 AM 77.0 °F - 73.4 °F 89% 29.92 in 7.0 mi Calm Calm - N/A   Overcast
10:53 AM 77.0 °F - 73.9 °F 90% 29.91 in 7.0 mi Calm Calm - N/A   Overcast
11:11 AM 78.8 °F - 73.4 °F 83% 29.92 in 8.0 mi Calm Calm - N/A   Overcast
11:40 AM 80.6 °F 85.4 °F 73.4 °F 79% 29.91 in 9.0 mi SW 4.6 mph - N/A   Mostly Cloudy
11:53 AM 80.1 °F 84.2 °F 73.0 °F 79% 29.90 in 9.0 mi Variable 3.5 mph - N/A   Mostly Cloudy
12:23 PM 82.4 °F 88.2 °F 73.4 °F 74% 29.91 in 9.0 mi SW 5.8 mph - N/A   Mostly Cloudy
12:53 PM 81.0 °F 85.8 °F 73.0 °F 77% 29.88 in 9.0 mi South 4.6 mph - 0.01 in   Overcast
1:53 PM 82.0 °F 87.4 °F 73.0 °F 74% 29.88 in 8.0 mi Variable 5.8 mph - 0.00 in Rain Light Rain
2:53 PM 86.0 °F 93.0 °F 73.0 °F 65% 29.86 in 10.0 mi WSW 6.9 mph - 0.00 in   Partly Cloudy
4:53 PM 88.0 °F 95.6 °F 73.0 °F 61% 29.83 in 10.0 mi Variable 3.5 mph - 0.00 in   Partly Cloudy
5:53 PM 88.0 °F 93.8 °F 71.1 °F 57% 29.83 in 10.0 mi NW 5.8 mph - N/A   Scattered Clouds
6:53 PM 84.9 °F 88.8 °F 69.1 °F 59% 29.83 in 10.0 mi WNW 5.8 mph - N/A   Clear
7:53 PM 79.0 °F - 73.0 °F 82% 29.84 in 10.0 mi Calm Calm - N/A   Clear
8:53 PM 75.0 °F - 72.0 °F 90% 29.85 in 10.0 mi Calm Calm - N/A   Clear
9:53 PM 75.0 °F - 70.0 °F 84% 29.86 in 10.0 mi North 3.5 mph - N/A   Clear
11:53 PM 71.1 °F - 69.1 °F 93% 29.87 in 9.0 mi Calm Calm - N/A   Clear